[[{"header":{"parameterUnit":"m.s-1","parameterCategory":2,"la1":30.2991,"la2":30.254,"lo1":-89.0895,"lo2":-89.0444,"dy":0.0017,"dx":0.0017,"nx":28,"ny":28,"refTime":"2023-03-17T21:00:00:Z","depth":"0","parameterNumber":2,"parameterNumberName":"U-component_of_CURRENTS"},"data":[0,0,0,0,0,0,0,0,0,0,0,0,0,0,0,0,0,0,0,0,0,0,0,0,0,0,0,0,0,0,0,0,0,0,0,0,0,0,0,0,0,0,0,0,0,0,0,0,0,0,0,0,0,0,0,0,0,0,0.2398,0.2399,0,0.2389,0.2388,0.2388,0.2381,0.2382,0.2382,0.2383,0.2342,0.2341,0.2339,0,0,0,0,0,0,0,0,0,0,0,0,0,0.2378,0.2378,0.2398,0.2399,0.2399,0.2389,0.2388,0.2388,0.2381,0.2382,0.2382,0.2383,0.2343,0.2341,0.2339,0,0,0,0,0,0,0,0,0,0,0,0,0,0.2374,0.2378,0.2398,0.2399,0.24,0.2389,0.2388,0.2387,0.2381,0.2382,0.2382,0.2383,0.2343,0.2341,0.2339,0.2309,0,0,0.2332,0.2331,0,0,0,0,0,0,0,0,0.2374,0.2374,0.2399,0.2399,0.24,0.2393,0.2367,0.2362,0.2381,0.2381,0.2383,0.2384,0.236,0.2356,0.2344,0.2307,0.2305,0.2332,0.233,0.2329,0.2328,0,0,0,0,0,0,0,0.2374,0.2374,0.2388,0.2399,0.24,0.239,0.239,0.2365,0.2361,0.2381,0.2382,0.2391,0.2359,0.2346,0.2343,0.2304,0.2332,0.2329,0.2328,0.2327,0.2294,0.2294,0,0,0,0,0,0,0.2389,0.2374,0.2389,0.2389,0.2396,0.239,0.239,0.2389,0.2362,0.236,0.2391,0.2391,0.235,0.2346,0.2342,0.2347,0.2329,0.2327,0.2326,0.2293,0.2294,0.2294,0,0,0,0,0,0,0.2388,0.239,0.2389,0.2387,0.2387,0.2391,0.2389,0.2389,0.2386,0.237,0.2367,0.2391,0.235,0.2345,0.2333,0.2344,0.2326,0.2324,0.2293,0.2293,0.2294,0.2329,0,0,0,0,0,0,0.2388,0.2389,0.2386,0.2388,0.2388,0.2388,0.2389,0.2388,0.2393,0.2393,0.237,0.2366,0.2351,0.2337,0.2331,0.234,0.2322,0.2292,0.2293,0.2294,0.2328,0.2331,0.2334,0,0,0,0,0,0.2387,0.2378,0.2385,0.2387,0.2385,0.2388,0.2386,0.2388,0.2392,0.2388,0.238,0.2367,0.2339,0.2335,0.2328,0.2337,0.2291,0.2293,0.2294,0.2326,0.2331,0.2334,0,0,0,0,0,0,0.2355,0.2378,0.2385,0.2381,0.239,0.239,0.2386,0.2391,0.2379,0.2381,0.2365,0.2361,0.236,0.234,0.2336,0.2332,0.2316,0.2316,0.2343,0.2347,0.2351,0.237,0.232,0,0,0,0,0,0.2351,0.2358,0.2375,0.2371,0.2378,0.2384,0.2384,0.2389,0.2386,0.2382,0.2369,0.2358,0.2355,0.2346,0.2335,0.2321,0.2326,0.2325,0.2329,0.2332,0.2344,0.2365,0.2372,0.2298,0.2298,0.2298,0,0,0.2338,0.2353,0.2355,0.2367,0.2372,0.238,0.2384,0.239,0.2399,0.2378,0.2375,0.2368,0.2356,0.2352,0.2349,0.2337,0.2355,0.2333,0.2336,0.2347,0.2367,0.2374,0.2381,0.2299,0.2299,0.2299,0,0,0.2326,0.2331,0.2338,0.2349,0.237,0.2374,0.2382,0.2388,0.2394,0.2388,0.2391,0.2396,0.2365,0.2374,0.2372,0.2386,0.2377,0.2378,0.2403,0.2423,0.2429,0.2435,0.245,0.2457,0.2373,0.2373,0.2374,0,0.2315,0.2324,0.2338,0.235,0.2362,0.2376,0.2387,0.2392,0.2393,0.2405,0.2391,0.2391,0.2381,0.2403,0.2412,0.2395,0.2401,0.2387,0.2429,0.2434,0.244,0.2453,0.2461,0.2375,0.2375,0.2375,0.2375,0,0.2313,0.2321,0.2325,0.2351,0.2359,0.237,0.2392,0.2401,0.2407,0.2414,0.2434,0.2424,0.2429,0.2428,0.2421,0.2459,0.245,0.2436,0.242,0.245,0.2462,0.2469,0.2378,0.2377,0.2377,0.2376,0,0,0.2295,0.2322,0.2325,0.2339,0.2365,0.2372,0.2396,0.2424,0.245,0.2445,0.2475,0.2477,0.2481,0.2482,0.2481,0.2499,0.2541,0.2484,0.2484,0.2503,0.2585,0.2578,0.2585,0.2533,0.2534,0.2535,0.2577,0,0.2296,0.2316,0.2331,0.2348,0.2361,0.2387,0.2409,0.2436,0.2456,0.2484,0.2499,0.2517,0.25,0.2508,0.2526,0.2546,0.2561,0.2531,0.255,0.2551,0.2545,0.2593,0.2563,0.2598,0.2584,0.2585,0.2586,0,0.2295,0.2311,0.2329,0.2361,0.237,0.2381,0.2431,0.2453,0.2503,0.252,0.2547,0.2558,0.2598,0.2571,0.2616,0.2597,0.2597,0.2602,0.2603,0.2593,0.2558,0.2566,0.261,0.2592,0.2596,0.2595,0.2595,0,0.2281,0.231,0.2325,0.2335,0.2371,0.239,0.2412,0.2462,0.2496,0.255,0.2577,0.2613,0.2643,0.2651,0.2667,0.2644,0.2714,0.2677,0.267,0.2668,0.2645,0.264,0.2679,0.2706,0.2706,0.2706,0.2706,0,0.2277,0.2289,0.2319,0.2328,0.2354,0.2382,0.242,0.2456,0.2516,0.2557,0.2594,0.2637,0.2666,0.2706,0.2697,0.2719,0.2736,0.2695,0.2688,0.2655,0.2651,0.2635,0.2617,0.2707,0.2707,0.2707,0.2707,0,0.2257,0.2277,0.2297,0.2334,0.2347,0.2364,0.2418,0.2448,0.2511,0.2572,0.2592,0.2675,0.2728,0.2753,0.2787,0.2766,0.2723,0.2773,0.2734,0.2723,0.268,0.2665,0.257,0.2484,0.2768,0.2768,0.2769,0,0.2246,0.2255,0.2293,0.2302,0.2318,0.2348,0.237,0.2435,0.2473,0.2588,0.2617,0.2706,0.2758,0.2822,0.2817,0.282,0.2733,0.2775,0.2722,0.2696,0.2675,0.2544,0.2468,0.2702,0.2702,0.2702,0.2702,0,0.2227,0.2243,0.2259,0.2279,0.2298,0.232,0.236,0.2396,0.2477,0.2543,0.2632,0.2692,0.278,0.2792,0.2818,0.2805,0.2683,0.2767,0.2755,0.265,0.2496,0.2404,0.2652,0.2699,0.2699,0.2699,0.27,0.27,0.221,0.2213,0.2233,0.2246,0.2266,0.2281,0.228,0.2339,0.2399,0.2482,0.2592,0.2676,0.2767,0.2808,0.2766,0.2734,0.2656,0.2687,0.2678,0.2551,0.2447,0.2691,0.272,0.272,0.272,0.2721,0.2721,0,0.2172,0.2178,0.2194,0.2199,0.2194,0.2224,0.2258,0.2249,0.2286,0.2418,0.2494,0.2653,0.2696,0.2731,0.2749,0.2678,0.2518,0.2626,0.2455,0.2386,0.2642,0.2622,0.2613,0.2613,0.2613,0.2613,0.2613,0.2613,0.215,0.2141,0.2146,0.2118,0.2121,0.2086,0.2088,0.2098,0.2169,0.2271,0.2377,0.2479,0.2654,0.2774,0.2743,0.2676,0.2471,0.2396,0.2329,0.2572,0.2577,0.2581,0.2559,0.2537,0.2537,0.1986,0.1983,0.198]},{"header":{"parameterUnit":"m.s-1","parameterCategory":2,"la1":30.2991,"la2":30.254,"lo1":-89.0895,"lo2":-89.0444,"dy":0.0017,"dx":0.0017,"nx":28,"ny":28,"refTime":"2023-03-17T21:00:00:Z","depth":"0","parameterNumber":3,"parameterNumberName":"V-component_of_CURRENTS"},"data":[0,0,0,0,0,0,0,0,0,0,0,0,0,0,0,0,0,0,0,0,0,0,0,0,0,0,0,0,0,0,0,0,0,0,0,0,0,0,0,0,0,0,0,0,0,0,0,0,0,0,0,0,0,0,0,0,0,0,-0.0177,-0.0177,0,-0.0218,-0.0218,-0.0218,-0.0239,-0.024,-0.024,-0.024,-0.0274,-0.0275,-0.0276,0,0,0,0,0,0,0,0,0,0,0,0,0,-0.0152,-0.0152,-0.0177,-0.0177,-0.0178,-0.0218,-0.0218,-0.0219,-0.0239,-0.024,-0.024,-0.024,-0.0274,-0.0275,-0.0276,0,0,0,0,0,0,0,0,0,0,0,0,0,-0.0174,-0.0152,-0.0177,-0.0193,-0.0195,-0.0217,-0.0218,-0.0219,-0.0239,-0.024,-0.024,-0.024,-0.0274,-0.0275,-0.0276,-0.0281,0,0,-0.028,-0.028,0,0,0,0,0,0,0,0,-0.0172,-0.0175,-0.019,-0.0192,-0.0195,-0.0224,-0.0222,-0.024,-0.0239,-0.0222,-0.024,-0.024,-0.0257,-0.026,-0.0266,-0.0283,-0.0285,-0.028,-0.0281,-0.0281,-0.0282,0,0,0,0,0,0,0,-0.0171,-0.0173,-0.0192,-0.0191,-0.0194,-0.0211,-0.0214,-0.0226,-0.0238,-0.0224,-0.0225,-0.0231,-0.0258,-0.0265,-0.0267,-0.0285,-0.028,-0.0281,-0.0282,-0.0282,-0.03,-0.03,0,0,0,0,0,0,-0.0165,-0.0171,-0.0191,-0.0194,-0.0184,-0.0211,-0.0215,-0.0214,-0.0238,-0.0242,-0.0231,-0.0232,-0.0263,-0.0266,-0.0269,-0.0262,-0.0281,-0.0282,-0.0283,-0.03,-0.03,-0.03,0,0,0,0,0,0,-0.0164,-0.0166,-0.0189,-0.0184,-0.0189,-0.0211,-0.0211,-0.0215,-0.0218,-0.0244,-0.0247,-0.023,-0.0263,-0.0267,-0.0274,-0.0264,-0.0283,-0.0284,-0.0301,-0.03,-0.03,-0.0257,0,0,0,0,0,0,-0.0163,-0.0165,-0.0159,-0.0184,-0.0189,-0.0191,-0.0211,-0.0215,-0.0222,-0.0223,-0.0244,-0.0248,-0.0263,-0.0272,-0.0275,-0.0266,-0.0285,-0.0301,-0.03,-0.03,-0.0259,-0.0255,-0.0252,0,0,0,0,0,-0.0162,-0.0151,-0.0158,-0.0161,-0.018,-0.0191,-0.0194,-0.0211,-0.0222,-0.0216,-0.0234,-0.0247,-0.0271,-0.0272,-0.0276,-0.0267,-0.0301,-0.0301,-0.03,-0.0261,-0.0256,-0.0252,0,0,0,0,0,0,-0.0134,-0.0153,-0.0161,-0.0155,-0.0168,-0.0194,-0.0191,-0.0206,-0.0217,-0.0218,-0.0243,-0.0248,-0.0252,-0.0265,-0.0267,-0.0271,-0.0288,-0.0288,-0.0257,-0.0253,-0.0249,-0.0229,-0.0286,0,0,0,0,0,-0.0125,-0.0123,-0.0144,-0.0139,-0.0141,-0.0166,-0.0172,-0.0185,-0.0201,-0.0206,-0.0223,-0.024,-0.0253,-0.0257,-0.0272,-0.0271,-0.0286,-0.0268,-0.0265,-0.0262,-0.0248,-0.0265,-0.0262,-0.0297,-0.0297,-0.0297,0,0,-0.0115,-0.0124,-0.0124,-0.0133,-0.0143,-0.0142,-0.0169,-0.0173,-0.017,-0.0207,-0.0206,-0.023,-0.0252,-0.0255,-0.0257,-0.0262,-0.0261,-0.0261,-0.0258,-0.0246,-0.0264,-0.0261,-0.0257,-0.0297,-0.0297,-0.0297,0,0,-0.0093,-0.0098,-0.0088,-0.0094,-0.0107,-0.012,-0.0119,-0.0141,-0.0146,-0.0155,-0.018,-0.0195,-0.0217,-0.0227,-0.0236,-0.0222,-0.0246,-0.023,-0.0191,-0.0208,-0.0205,-0.0202,-0.0222,-0.0221,-0.0224,-0.0224,-0.0224,0,-0.0082,-0.0068,-0.0086,-0.0078,-0.0076,-0.0107,-0.0093,-0.0104,-0.0127,-0.0124,-0.0147,-0.0179,-0.0202,-0.0198,-0.0196,-0.0213,-0.0228,-0.0205,-0.0203,-0.0201,-0.0199,-0.0219,-0.0219,-0.0221,-0.0222,-0.0222,-0.0222,0,-0.0051,-0.0041,-0.0033,-0.0032,-0.0032,-0.0025,-0.0041,-0.0039,-0.0057,-0.0075,-0.0082,-0.012,-0.0135,-0.015,-0.017,-0.0164,-0.0182,-0.02,-0.0211,-0.0192,-0.0216,-0.0216,-0.0218,-0.0219,-0.022,-0.022,0,0,-0.0028,-0.0015,-0.0011,0.0005,-0.0004,0.0002,0.0013,0.0018,0.0033,-0.0005,0.001,-0.003,-0.0057,-0.0069,-0.01,-0.0115,-0.0126,-0.0147,-0.0149,-0.0161,-0.0164,-0.0187,-0.0191,-0.0145,-0.0145,-0.0145,-0.0187,0,0.0002,0.0037,0.0032,0.0066,0.0085,0.0072,0.0089,0.0087,0.0074,0.0079,0.0037,0.0027,-0.0024,-0.0033,-0.0056,-0.0104,-0.0125,-0.0112,-0.0183,-0.0185,-0.0204,-0.0191,-0.0201,-0.024,-0.0188,-0.0189,-0.0189,0,0.0037,0.0057,0.01,0.0131,0.0139,0.0154,0.0187,0.0196,0.0191,0.018,0.0158,0.0115,0.0089,0.0037,-0.0034,-0.0025,-0.0087,-0.0132,-0.0136,-0.0169,-0.0209,-0.0249,-0.0244,-0.0385,-0.019,-0.019,-0.019,0,0.0076,0.0107,0.0149,0.0157,0.0182,0.0209,0.0223,0.023,0.0256,0.0244,0.0255,0.0199,0.0183,0.0099,-0.0007,-0.0019,-0.0089,-0.012,-0.02,-0.0203,-0.0229,-0.0234,-0.0361,-0.017,-0.017,-0.017,-0.017,0,0.0114,0.0146,0.0174,0.0198,0.0258,0.0256,0.0315,0.0321,0.034,0.0381,0.0311,0.0328,0.0198,0.0135,0.0027,-0.0084,-0.0067,-0.0186,-0.0212,-0.0216,-0.0219,-0.0358,-0.0451,-0.0172,-0.0171,-0.0171,-0.0171,0,0.015,0.0164,0.0217,0.026,0.0279,0.0323,0.0381,0.0422,0.0428,0.0483,0.0482,0.0432,0.035,0.0211,0.0079,-0.003,-0.024,-0.0192,-0.019,-0.0215,-0.0423,-0.0513,-0.0639,-0.0762,-0.0283,-0.0284,-0.0285,0,0.0171,0.0203,0.0268,0.0309,0.0333,0.0395,0.0443,0.0467,0.0518,0.0554,0.0591,0.0524,0.0498,0.0288,0.0078,-0.0116,-0.0268,-0.0262,-0.029,-0.043,-0.0549,-0.0585,-0.0684,-0.0313,-0.0314,-0.0315,-0.0315,0,0.0217,0.0242,0.0288,0.037,0.043,0.0501,0.0573,0.0628,0.0668,0.0713,0.0761,0.074,0.0543,0.0345,0.0066,-0.0084,-0.0389,-0.0282,-0.0428,-0.0581,-0.0628,-0.0759,-0.0295,-0.0321,-0.0321,-0.032,-0.032,-0.032,0.0256,0.0297,0.036,0.0437,0.0509,0.0601,0.0665,0.0745,0.0833,0.0907,0.0891,0.0885,0.0588,0.0211,-0.0017,-0.0434,-0.044,-0.0553,-0.0648,-0.0669,-0.0795,-0.0344,-0.0399,-0.0399,-0.0399,-0.0399,-0.0398,0,0.0303,0.0348,0.0423,0.0516,0.0594,0.0626,0.0747,0.0808,0.0915,0.0985,0.1022,0.0866,0.0499,0.0108,-0.0431,-0.0725,-0.0858,-0.0905,-0.0971,-0.1058,-0.065,-0.066,-0.0773,-0.0773,-0.0773,-0.0773,-0.0772,-0.0772,0.033,0.0404,0.0438,0.0569,0.0634,0.0734,0.0803,0.0897,0.0967,0.1022,0.1011,0.0975,0.0626,-0.0224,-0.0903,-0.1083,-0.1328,-0.1339,-0.1499,-0.1223,-0.1197,-0.1172,-0.1201,-0.1427,-0.1428,-0.1863,-0.1867,-0.1871]}],[{"header":{"parameterUnit":"m.s-1","parameterCategory":2,"la1":30.2991,"la2":30.254,"lo1":-89.0895,"lo2":-89.0444,"dy":0.0017,"dx":0.0017,"nx":28,"ny":28,"refTime":"2023-03-17T21:00:00:Z","depth":"2","parameterNumber":2,"parameterNumberName":"U-component_of_CURRENTS"},"data":[0,0,0,0,0,0,0,0,0,0,0,0,0,0,0,0,0,0,0,0,0,0,0,0,0,0,0,0,0,0,0,0,0,0,0,0,0,0,0,0,0,0,0,0,0,0,0,0,0,0,0,0,0,0,0,0,0,0,0.2381,0.2381,0,0.2371,0.237,0.2369,0.2363,0.2364,0.2365,0.2365,0.2328,0.2327,0.2325,0,0,0,0,0,0,0,0,0,0,0,0,0,0.236,0.236,0.2381,0.2381,0.2382,0.2371,0.237,0.2369,0.2363,0.2364,0.2365,0.2365,0.2329,0.2327,0.2325,0,0,0,0,0,0,0,0,0,0,0,0,0,0.2355,0.236,0.2381,0.2382,0.2383,0.2371,0.237,0.2369,0.2363,0.2364,0.2365,0.2366,0.2329,0.2327,0.2325,0.2294,0,0,0.2318,0.2317,0,0,0,0,0,0,0,0,0.2355,0.2355,0.2381,0.2382,0.2383,0.2375,0.2349,0.2345,0.2363,0.2364,0.2365,0.2366,0.2345,0.2341,0.2329,0.2292,0.229,0.2318,0.2316,0.2315,0.2315,0,0,0,0,0,0,0,0.2356,0.2355,0.237,0.2382,0.2383,0.2372,0.2372,0.2348,0.2344,0.2364,0.2365,0.2374,0.2344,0.2331,0.2328,0.229,0.2318,0.2316,0.2314,0.2313,0.2282,0.2282,0,0,0,0,0,0,0.2371,0.2356,0.2371,0.2371,0.2378,0.2372,0.2372,0.2371,0.2345,0.2344,0.2373,0.2374,0.2334,0.233,0.2327,0.2333,0.2315,0.2313,0.2312,0.2281,0.2282,0.2282,0,0,0,0,0,0,0.237,0.2372,0.2371,0.2369,0.2369,0.2372,0.2371,0.2371,0.2369,0.2354,0.2351,0.2374,0.2335,0.233,0.2319,0.233,0.2312,0.231,0.228,0.2281,0.2282,0.2318,0,0,0,0,0,0,0.2369,0.2371,0.2368,0.2369,0.237,0.237,0.2371,0.237,0.2375,0.2376,0.2353,0.235,0.2335,0.2323,0.2317,0.2327,0.2308,0.228,0.2281,0.2282,0.2316,0.232,0.2323,0,0,0,0,0,0.2368,0.236,0.2367,0.2369,0.2367,0.237,0.2368,0.2369,0.2375,0.237,0.2363,0.2351,0.2325,0.2321,0.2314,0.2324,0.2279,0.228,0.2282,0.2314,0.2319,0.2323,0,0,0,0,0,0,0.2337,0.236,0.2367,0.2363,0.2372,0.2372,0.2369,0.2374,0.2362,0.2365,0.2349,0.2345,0.2345,0.2326,0.2322,0.2319,0.2303,0.2303,0.2331,0.2335,0.2338,0.2357,0.2306,0,0,0,0,0,0.2333,0.2341,0.2357,0.2354,0.2361,0.2367,0.2367,0.2372,0.2369,0.2365,0.2353,0.2343,0.2341,0.2333,0.2322,0.2309,0.2314,0.2313,0.2317,0.232,0.2332,0.2352,0.2359,0.2286,0.2286,0.2286,0,0,0.2321,0.2336,0.2338,0.235,0.2355,0.2363,0.2367,0.2373,0.2382,0.2362,0.236,0.2354,0.2342,0.2338,0.2336,0.2324,0.2343,0.2321,0.2324,0.2335,0.2354,0.2362,0.2368,0.2287,0.2287,0.2286,0,0,0.2309,0.2315,0.2323,0.2333,0.2354,0.2358,0.2366,0.2372,0.2378,0.2373,0.2376,0.2382,0.2352,0.2361,0.2359,0.2374,0.2365,0.2366,0.2391,0.2411,0.2417,0.2423,0.2437,0.2444,0.2362,0.2362,0.2362,0,0.2299,0.2308,0.2323,0.2335,0.2347,0.2361,0.2371,0.2376,0.2378,0.2389,0.2377,0.2378,0.2368,0.239,0.24,0.2383,0.2389,0.2376,0.2417,0.2422,0.2428,0.2441,0.2448,0.2364,0.2364,0.2363,0.2363,0,0.2298,0.2306,0.2311,0.2337,0.2345,0.2355,0.2377,0.2386,0.2393,0.24,0.242,0.2411,0.2416,0.2416,0.2409,0.2447,0.2438,0.2424,0.2408,0.2437,0.2449,0.2456,0.2366,0.2366,0.2365,0.2365,0,0,0.2281,0.2308,0.2311,0.2325,0.2351,0.2358,0.2382,0.2409,0.2436,0.2431,0.2461,0.2464,0.2469,0.2469,0.2469,0.2486,0.2529,0.2472,0.2472,0.249,0.2571,0.2563,0.2569,0.252,0.2522,0.2523,0.2564,0,0.2283,0.2303,0.2318,0.2335,0.2348,0.2374,0.2395,0.2422,0.2442,0.247,0.2485,0.2503,0.2487,0.2496,0.2514,0.2533,0.2548,0.2519,0.2537,0.2537,0.253,0.2578,0.2309,0.2323,0.257,0.2571,0.2572,0,0.2283,0.2299,0.2316,0.2348,0.2357,0.2369,0.2418,0.244,0.2489,0.2506,0.2533,0.2544,0.2584,0.2558,0.2602,0.2584,0.2584,0.2588,0.259,0.2577,0.2543,0.2333,0.2326,0.2583,0.2582,0.2581,0.2581,0,0.227,0.2298,0.2313,0.2323,0.2359,0.2378,0.24,0.2449,0.2483,0.2537,0.2564,0.2599,0.2629,0.2637,0.2653,0.263,0.2699,0.2662,0.2653,0.2652,0.2425,0.2403,0.2691,0.269,0.269,0.269,0.269,0,0.2266,0.2278,0.2308,0.2317,0.2343,0.2371,0.2409,0.2444,0.2504,0.2545,0.2582,0.2624,0.2652,0.2691,0.2682,0.2702,0.272,0.2677,0.2671,0.2431,0.2409,0.2633,0.2626,0.2692,0.2691,0.2691,0.2691,0,0.2247,0.2266,0.2286,0.2324,0.2336,0.2354,0.2408,0.2438,0.25,0.256,0.258,0.2662,0.2713,0.2738,0.2771,0.2749,0.2758,0.2754,0.2478,0.2439,0.2686,0.268,0.2746,0.2747,0.2747,0.2747,0.2747,0,0.2236,0.2245,0.2284,0.2293,0.2309,0.2339,0.2362,0.2425,0.2464,0.2576,0.2605,0.2691,0.2733,0.2794,0.2733,0.2719,0.2784,0.2505,0.242,0.271,0.2696,0.269,0.2684,0.212,0.2115,0.2111,0.2108,0,0.2218,0.2234,0.225,0.2271,0.229,0.2311,0.2352,0.2387,0.2467,0.2519,0.2605,0.2654,0.2692,0.256,0.2561,0.2519,0.2487,0.2427,0.2785,0.2173,0.2129,0.2114,0.2125,0.2071,0.2075,0.2078,0.208,0.2081,0.2202,0.2205,0.2225,0.2238,0.2258,0.2273,0.2272,0.228,0.2321,0.2319,0.2479,0.2418,0.2425,0.2271,0.2205,0.214,0.2322,0.2205,0.2212,0.2225,0.217,0.2132,0.2064,0.2067,0.207,0.2073,0.2075,0,0.2144,0.217,0.2187,0.2192,0.2157,0.2216,0.225,0.2165,0.212,0.2126,0.2124,0.1933,0.1841,0.1857,0.168,0.1712,0.1638,0.1667,0.1519,0.1557,0.1591,0.1499,0.1217,0.1215,0.1212,0.121,0,0,0.2119,0.2098,0.2103,0.2056,0.2078,0.1984,0.1984,0.1872,0.1811,0.1677,0.1601,0.1668,0.1775,0.1438,0.1417,0.1284,0.1408,0.1236,0.192,0.1782,0.1812,0.19,0.1804,0,0,0,0,0]},{"header":{"parameterUnit":"m.s-1","parameterCategory":2,"la1":30.2991,"la2":30.254,"lo1":-89.0895,"lo2":-89.0444,"dy":0.0017,"dx":0.0017,"nx":28,"ny":28,"refTime":"2023-03-17T21:00:00:Z","depth":"2","parameterNumber":3,"parameterNumberName":"V-component_of_CURRENTS"},"data":[0,0,0,0,0,0,0,0,0,0,0,0,0,0,0,0,0,0,0,0,0,0,0,0,0,0,0,0,0,0,0,0,0,0,0,0,0,0,0,0,0,0,0,0,0,0,0,0,0,0,0,0,0,0,0,0,0,0,-0.0106,-0.0106,0,-0.0145,-0.0145,-0.0146,-0.0168,-0.0168,-0.0168,-0.0168,-0.0204,-0.0205,-0.0206,0,0,0,0,0,0,0,0,0,0,0,0,0,-0.0082,-0.0082,-0.0106,-0.0106,-0.0107,-0.0145,-0.0145,-0.0146,-0.0168,-0.0168,-0.0168,-0.0168,-0.0204,-0.0205,-0.0206,0,0,0,0,0,0,0,0,0,0,0,0,0,-0.0103,-0.0082,-0.0105,-0.0123,-0.0125,-0.0145,-0.0145,-0.0146,-0.0168,-0.0168,-0.0168,-0.0168,-0.0203,-0.0205,-0.0206,-0.021,0,0,-0.021,-0.021,0,0,0,0,0,0,0,0,-0.0101,-0.0103,-0.012,-0.0122,-0.0124,-0.0152,-0.015,-0.0167,-0.0167,-0.015,-0.0168,-0.0168,-0.0187,-0.0189,-0.0195,-0.0211,-0.0213,-0.021,-0.0211,-0.0211,-0.0211,0,0,0,0,0,0,0,-0.01,-0.0102,-0.012,-0.012,-0.0123,-0.014,-0.0142,-0.0154,-0.0166,-0.0152,-0.0154,-0.0159,-0.0188,-0.0194,-0.0196,-0.0213,-0.021,-0.0211,-0.0212,-0.0212,-0.0229,-0.0229,0,0,0,0,0,0,-0.0095,-0.01,-0.0119,-0.0122,-0.0114,-0.014,-0.0143,-0.0142,-0.0166,-0.017,-0.0159,-0.016,-0.0192,-0.0195,-0.0198,-0.0192,-0.0211,-0.0212,-0.0213,-0.023,-0.0229,-0.0229,0,0,0,0,0,0,-0.0094,-0.0096,-0.0118,-0.0113,-0.0117,-0.014,-0.0139,-0.0143,-0.0147,-0.0172,-0.0176,-0.0159,-0.0192,-0.0196,-0.0203,-0.0194,-0.0213,-0.0214,-0.023,-0.023,-0.0229,-0.0188,0,0,0,0,0,0,-0.0093,-0.0095,-0.0089,-0.0112,-0.0117,-0.0119,-0.0139,-0.0144,-0.0151,-0.0152,-0.0173,-0.0177,-0.0193,-0.0201,-0.0205,-0.0196,-0.0215,-0.023,-0.023,-0.0229,-0.019,-0.0186,-0.0183,0,0,0,0,0,-0.0092,-0.008,-0.0088,-0.009,-0.0109,-0.0119,-0.0122,-0.0139,-0.015,-0.0145,-0.0163,-0.0176,-0.02,-0.0202,-0.0206,-0.0198,-0.0231,-0.023,-0.0229,-0.0191,-0.0187,-0.0183,0,0,0,0,0,0,-0.0064,-0.0082,-0.0091,-0.0085,-0.0097,-0.0122,-0.0119,-0.0135,-0.0145,-0.0148,-0.0172,-0.0177,-0.0182,-0.0195,-0.0196,-0.0201,-0.0217,-0.0218,-0.0187,-0.0183,-0.018,-0.016,-0.0216,0,0,0,0,0,-0.0056,-0.0054,-0.0074,-0.0069,-0.0071,-0.0095,-0.0101,-0.0114,-0.013,-0.0135,-0.0153,-0.017,-0.0183,-0.0186,-0.0201,-0.0201,-0.0216,-0.0199,-0.0195,-0.0192,-0.0179,-0.0196,-0.0193,-0.0227,-0.0227,-0.0227,0,0,-0.0047,-0.0055,-0.0055,-0.0063,-0.0073,-0.0071,-0.0098,-0.0103,-0.01,-0.0137,-0.0136,-0.016,-0.0182,-0.0184,-0.0187,-0.0192,-0.0192,-0.0191,-0.0189,-0.0177,-0.0195,-0.0192,-0.0189,-0.0226,-0.0227,-0.0227,0,0,-0.0025,-0.003,-0.002,-0.0026,-0.0038,-0.0051,-0.005,-0.0072,-0.0077,-0.0086,-0.0111,-0.0126,-0.0148,-0.0157,-0.0166,-0.0152,-0.0178,-0.0161,-0.0123,-0.014,-0.0137,-0.0135,-0.0156,-0.0155,-0.0155,-0.0155,-0.0155,0,-0.0015,-0.0001,-0.0018,-0.001,-0.0008,-0.0039,-0.0025,-0.0035,-0.0058,-0.0056,-0.0079,-0.0111,-0.0133,-0.0129,-0.0128,-0.0143,-0.016,-0.0136,-0.0135,-0.0133,-0.0132,-0.0153,-0.0153,-0.0153,-0.0153,-0.0153,-0.0153,0,0.0015,0.0025,0.0033,0.0034,0.0035,0.0041,0.0026,0.0027,0.0009,-0.0009,-0.0016,-0.0053,-0.0068,-0.0082,-0.0102,-0.0097,-0.0115,-0.0133,-0.0143,-0.0126,-0.015,-0.0151,-0.015,-0.0151,-0.0151,-0.0152,0,0,0.0036,0.005,0.0053,0.007,0.0061,0.0068,0.0079,0.0084,0.0099,0.0061,0.0075,0.0036,0.0008,-0.0003,-0.0034,-0.0049,-0.0061,-0.0081,-0.0083,-0.0097,-0.0102,-0.0126,-0.013,-0.0081,-0.0081,-0.008,-0.0126,0,0.0065,0.01,0.0096,0.013,0.0149,0.0136,0.0154,0.0152,0.0139,0.0143,0.0102,0.0092,0.004,0.0031,0.0008,-0.004,-0.0061,-0.0048,-0.012,-0.0122,-0.0142,-0.0131,-0.0083,-0.012,-0.0127,-0.0127,-0.0127,0,0.0098,0.0119,0.0161,0.0193,0.0201,0.0216,0.0249,0.0258,0.0253,0.0242,0.0219,0.0177,0.015,0.0099,0.0027,0.0037,-0.0025,-0.0071,-0.0074,-0.0108,-0.0147,-0.0138,-0.0122,-0.0129,-0.0129,-0.0129,-0.0129,0,0.0135,0.0167,0.0208,0.0217,0.0243,0.0269,0.0284,0.0291,0.0316,0.0304,0.0314,0.0258,0.0242,0.0158,0.0052,0.004,-0.0031,-0.0061,-0.0142,-0.0145,-0.0122,-0.0124,-0.0112,-0.0112,-0.0112,-0.0111,-0.0111,0,0.0172,0.0204,0.0233,0.0256,0.0315,0.0314,0.0373,0.0379,0.0398,0.0438,0.0368,0.0385,0.0256,0.0193,0.0084,-0.0028,-0.001,-0.0128,-0.0154,-0.0109,-0.0108,-0.013,-0.0131,-0.0113,-0.0113,-0.0112,-0.0112,0,0.0205,0.0221,0.0273,0.0316,0.0336,0.0378,0.0437,0.0477,0.0484,0.0537,0.0536,0.0486,0.0403,0.0265,0.0132,0.0024,-0.009,-0.0138,-0.008,-0.0098,-0.0203,-0.0202,-0.0229,-0.023,-0.0231,-0.0232,-0.0232,0,0.0226,0.0258,0.0323,0.0363,0.0387,0.0449,0.0496,0.0521,0.0571,0.0606,0.0643,0.0575,0.0547,0.0337,0.0143,-0.0048,-0.0091,-0.0152,-0.017,-0.019,-0.0213,-0.021,-0.0208,-0.0127,-0.0127,-0.0127,-0.0127,0,0.027,0.0295,0.0341,0.0422,0.0482,0.0553,0.0625,0.0679,0.0719,0.0764,0.081,0.0788,0.0602,0.0426,0.0153,0.0023,-0.0121,-0.0156,-0.0178,-0.011,-0.01,-0.012,-0.012,-0.0125,-0.0125,-0.0125,-0.0126,-0.0126,0.0308,0.0348,0.0411,0.0487,0.0559,0.0651,0.0714,0.0808,0.0897,0.0979,0.0936,0.0915,0.0707,0.0376,0.0152,-0.0094,-0.0098,-0.0192,-0.019,-0.0189,-0.0174,-0.0166,-0.0202,-0.0202,-0.0203,-0.0203,-0.0203,0,0.0368,0.0398,0.0472,0.0564,0.0661,0.0674,0.0795,0.089,0.1016,0.1063,0.1094,0.091,0.0695,0.0444,0.0101,-0.0117,-0.0121,-0.0199,-0.0148,-0.0148,-0.0148,-0.0129,-0.0147,-0.0147,-0.0148,-0.0148,0,0,0.0398,0.0479,0.0513,0.0653,0.0704,0.0847,0.0917,0.1049,0.1129,0.1198,0.1165,0.1081,0.0775,0.0533,0.025,0.0053,-0.0002,0.0011,-0.0009,0.0086,0.0088,-0.0117,-0.0085,0,0,0,0,0]}],[{"header":{"parameterUnit":"m.s-1","parameterCategory":2,"la1":30.2991,"la2":30.254,"lo1":-89.0895,"lo2":-89.0444,"dy":0.0017,"dx":0.0017,"nx":28,"ny":28,"refTime":"2023-03-17T21:00:00:Z","depth":"4","parameterNumber":2,"parameterNumberName":"U-component_of_CURRENTS"},"data":[0,0,0,0,0,0,0,0,0,0,0,0,0,0,0,0,0,0,0,0,0,0,0,0,0,0,0,0,0,0,0,0,0,0,0,0,0,0,0,0,0,0,0,0,0,0,0,0,0,0,0,0,0,0,0,0,0,0,0.1207,0.1208,0,0.1255,0.1255,0.1256,0.1313,0.1314,0.1315,0.1316,0.1371,0.1372,0.1372,0,0,0,0,0,0,0,0,0,0,0,0,0,0.1195,0.1195,0.1207,0.1208,0.1208,0.1255,0.1255,0.1256,0.1313,0.1314,0.1315,0.1316,0.1371,0.1371,0.1372,0,0,0,0,0,0,0,0,0,0,0,0,0,0.1218,0.1195,0.1207,0.1242,0.1246,0.1255,0.1256,0.1256,0.1313,0.1314,0.1316,0.1317,0.137,0.1371,0.1372,0.1353,0,0,0.1375,0.1376,0,0,0,0,0,0,0,0,0.1216,0.1218,0.1237,0.124,0.1244,0.1279,0.1271,0.1289,0.1313,0.1288,0.1316,0.1317,0.134,0.1343,0.135,0.1355,0.1358,0.1376,0.1376,0.1377,0.1377,0,0,0,0,0,0,0,0.1215,0.1216,0.1227,0.1237,0.1241,0.1266,0.127,0.1275,0.1306,0.129,0.1294,0.1299,0.1342,0.1349,0.1352,0.1359,0.1375,0.1376,0.1377,0.1377,0.1462,0.1463,0,0,0,0,0,0,0.1205,0.1215,0.1225,0.1228,0.1233,0.1265,0.127,0.1267,0.1306,0.1313,0.1297,0.1301,0.1346,0.135,0.1354,0.1427,0.1377,0.1377,0.1378,0.146,0.1462,0.1464,0,0,0,0,0,0,0.1204,0.1205,0.1223,0.1223,0.1227,0.1263,0.126,0.1267,0.1308,0.1312,0.1319,0.1335,0.1348,0.1352,0.1394,0.1426,0.1378,0.1379,0.1458,0.1461,0.1463,0.1512,0,0,0,0,0,0,0.1203,0.1204,0.122,0.1222,0.1226,0.1252,0.1259,0.1267,0.1307,0.1313,0.1346,0.135,0.1349,0.1392,0.1395,0.1426,0.138,0.1456,0.1459,0.1462,0.1508,0.1516,0.1522,0,0,0,0,0,0.1203,0.1211,0.122,0.1223,0.1239,0.1253,0.1259,0.1289,0.1308,0.133,0.1357,0.1351,0.1414,0.1394,0.1397,0.1429,0.1454,0.1458,0.1462,0.1505,0.1515,0.1522,0,0,0,0,0,0,0.1214,0.1217,0.1228,0.1238,0.1256,0.1263,0.1291,0.1306,0.1344,0.1363,0.1367,0.1373,0.1424,0.1419,0.1398,0.1464,0.1435,0.1439,0.1467,0.1476,0.1483,0.1493,0.138,0,0,0,0,0,0.1221,0.1231,0.1238,0.1251,0.1263,0.1283,0.1301,0.132,0.1342,0.1363,0.1385,0.1411,0.1434,0.1451,0.1469,0.1498,0.1499,0.1524,0.1531,0.1537,0.1549,0.1578,0.1588,0.1476,0.1476,0.1476,0,0,0.1226,0.1233,0.1239,0.1255,0.1275,0.1292,0.1299,0.1333,0.1359,0.136,0.1418,0.1439,0.1449,0.149,0.1512,0.1494,0.1569,0.1541,0.1546,0.1555,0.1583,0.1594,0.1603,0.1478,0.1478,0.1477,0,0,0.1234,0.1253,0.1264,0.1282,0.1315,0.1325,0.1341,0.137,0.1403,0.1444,0.146,0.1505,0.1532,0.1553,0.1562,0.1618,0.1608,0.1628,0.1668,0.1696,0.1706,0.1714,0.1723,0.1732,0.1627,0.1627,0.1627,0,0.1247,0.1256,0.1273,0.1291,0.1312,0.1341,0.1363,0.1391,0.1434,0.1466,0.1473,0.1547,0.1561,0.1609,0.1637,0.1634,0.1643,0.1632,0.1705,0.1713,0.1721,0.1728,0.1737,0.163,0.163,0.163,0.1629,0,0.1253,0.1277,0.1289,0.1318,0.1344,0.1372,0.1404,0.1449,0.1489,0.1515,0.1589,0.1614,0.1659,0.1672,0.1673,0.1739,0.1726,0.1711,0.168,0.1735,0.1739,0.1748,0.1634,0.1633,0.1632,0.1632,0,0,0.1239,0.1284,0.1294,0.1317,0.1366,0.1383,0.1439,0.1491,0.1538,0.159,0.1649,0.1703,0.1734,0.1748,0.1762,0.1791,0.1853,0.1784,0.1784,0.1787,0.1912,0.178,0.1776,0.1854,0.1856,0.1858,0.1891,0,0.1247,0.1279,0.1305,0.135,0.1371,0.1422,0.1467,0.1523,0.1579,0.1644,0.1692,0.1753,0.1755,0.1794,0.1826,0.1855,0.188,0.1845,0.1864,0.1864,0.1736,0.1783,0.1864,0.1897,0.1899,0.19,0.1901,0,0.1243,0.1268,0.1311,0.137,0.1387,0.1425,0.1515,0.156,0.1651,0.1699,0.177,0.1808,0.1884,0.1868,0.194,0.1922,0.1929,0.1936,0.1937,0.1804,0.1748,0.1834,0.1916,0.1915,0.1914,0.1913,0.1912,0,0.1216,0.1272,0.1311,0.1331,0.1399,0.1449,0.1499,0.1589,0.164,0.175,0.1802,0.1878,0.1936,0.1965,0.1994,0.198,0.2051,0.2023,0.1905,0.1895,0.1981,0.1972,0.2065,0.2065,0.2065,0.2065,0.2065,0,0.1198,0.1233,0.1309,0.1328,0.1387,0.1447,0.1526,0.1591,0.1689,0.1746,0.1839,0.1889,0.1969,0.2014,0.2019,0.1987,0.2071,0.1921,0.1899,0.2,0.1993,0.1986,0.1977,0.2066,0.2066,0.2066,0.2065,0,0.1159,0.1208,0.1255,0.1342,0.1376,0.1424,0.1533,0.1581,0.1691,0.1772,0.1814,0.1925,0.1978,0.2025,0.2073,0.2007,0.1995,0.196,0.2069,0.2051,0.1812,0.1805,0.1825,0.182,0.1817,0.1814,0.1811,0,0.1136,0.1158,0.1257,0.1289,0.1337,0.1417,0.1464,0.1574,0.1623,0.177,0.1795,0.1898,0.1951,0.1908,0.1969,0.1955,0.1929,0.1905,0.1854,0.1813,0.1791,0.1789,0.1787,0.1805,0.1804,0.1803,0.1802,0,0.1092,0.1145,0.1183,0.1247,0.1308,0.1356,0.1438,0.1462,0.1581,0.1694,0.1726,0.1749,0.1801,0.1821,0.1828,0.1815,0.1911,0.1866,0.1873,0.1825,0.179,0.1771,0.1773,0.179,0.1792,0.1793,0.1794,0,0.1068,0.1082,0.1141,0.1187,0.1251,0.1272,0.1326,0.1371,0.1427,0.158,0.1584,0.1685,0.178,0.1749,0.1757,0.1735,0.1699,0.1629,0.1647,0.1662,0.1592,0.1523,0.1428,0,0,0,0,0,0.1028,0.103,0.1069,0.1105,0.1162,0.1195,0.129,0.1346,0.1461,0.1438,0.1504,0.1537,0.1549,0.1603,0.1545,0.1687,0.1712,0.1612,0.1642,0.172,0.1735,0.1667,0,0,0,0,0,0,0.0999,0.1031,0.1037,0.1021,0.1027,0.1073,0.1127,0.121,0.1203,0.1327,0.1342,0.1429,0.1468,0.1556,0.1509,0.1523,0.1505,0.1673,0.1669,0.1712,0.1725,0.1737,0.1673,0,0,0,0,0]},{"header":{"parameterUnit":"m.s-1","parameterCategory":2,"la1":30.2991,"la2":30.254,"lo1":-89.0895,"lo2":-89.0444,"dy":0.0017,"dx":0.0017,"nx":28,"ny":28,"refTime":"2023-03-17T21:00:00:Z","depth":"4","parameterNumber":3,"parameterNumberName":"V-component_of_CURRENTS"},"data":[0,0,0,0,0,0,0,0,0,0,0,0,0,0,0,0,0,0,0,0,0,0,0,0,0,0,0,0,0,0,0,0,0,0,0,0,0,0,0,0,0,0,0,0,0,0,0,0,0,0,0,0,0,0,0,0,0,0,0.0346,0.0346,0,0.0321,0.0321,0.032,0.0299,0.0299,0.0299,0.0299,0.0276,0.0275,0.0275,0,0,0,0,0,0,0,0,0,0,0,0,0,0.0331,0.0331,0.0346,0.0346,0.0346,0.0321,0.0321,0.032,0.0299,0.0299,0.0299,0.0299,0.0276,0.0275,0.0275,0,0,0,0,0,0,0,0,0,0,0,0,0,0.0322,0.0331,0.0346,0.0335,0.0334,0.0321,0.0321,0.032,0.0299,0.0299,0.0299,0.0299,0.0276,0.0275,0.0274,0.0266,0,0,0.0271,0.0271,0,0,0,0,0,0,0,0,0.0323,0.0322,0.0336,0.0336,0.0334,0.0316,0.0307,0.0303,0.0299,0.0309,0.0299,0.0299,0.0291,0.0289,0.028,0.0265,0.0264,0.0271,0.0271,0.027,0.027,0,0,0,0,0,0,0,0.0323,0.0323,0.0333,0.0336,0.0335,0.0316,0.0315,0.0306,0.0298,0.0308,0.0307,0.0309,0.029,0.0281,0.0279,0.0264,0.0271,0.027,0.027,0.0269,0.0239,0.0238,0,0,0,0,0,0,0.0335,0.0324,0.0334,0.0332,0.0332,0.0317,0.0315,0.0319,0.0298,0.0295,0.0309,0.0309,0.0283,0.028,0.0278,0.0274,0.027,0.0269,0.0269,0.0239,0.0239,0.0238,0,0,0,0,0,0,0.0335,0.0336,0.0335,0.033,0.0329,0.0318,0.0322,0.0319,0.0313,0.0299,0.0296,0.0308,0.0282,0.028,0.0272,0.0273,0.0269,0.0268,0.0239,0.0239,0.0238,0.0262,0,0,0,0,0,0,0.0334,0.0336,0.0342,0.0331,0.033,0.0329,0.0322,0.0318,0.0316,0.0314,0.0297,0.0294,0.0282,0.0274,0.0271,0.0272,0.0267,0.0239,0.0239,0.0239,0.0262,0.0263,0.0263,0,0,0,0,0,0.0334,0.0344,0.0342,0.0344,0.0338,0.0329,0.0326,0.0316,0.0316,0.0311,0.0301,0.0295,0.0269,0.0273,0.027,0.027,0.0239,0.0239,0.0239,0.0261,0.0262,0.0263,0,0,0,0,0,0,0.0339,0.0342,0.0341,0.0351,0.0342,0.0327,0.0329,0.032,0.0308,0.031,0.0294,0.0291,0.0284,0.0273,0.0277,0.0259,0.0252,0.0251,0.027,0.0272,0.0272,0.0283,0.0266,0,0,0,0,0,0.0345,0.0354,0.0347,0.0355,0.0355,0.0342,0.0338,0.033,0.032,0.0315,0.0302,0.0289,0.0278,0.0273,0.026,0.0252,0.0233,0.0249,0.025,0.0251,0.0256,0.0225,0.0224,0.0237,0.0237,0.0237,0,0,0.0352,0.0354,0.0361,0.0357,0.0353,0.0353,0.0339,0.0337,0.0337,0.0315,0.0311,0.0293,0.0277,0.0267,0.0262,0.0259,0.0236,0.025,0.0251,0.0256,0.0224,0.0223,0.0222,0.0236,0.0236,0.0237,0,0,0.0368,0.0372,0.0382,0.0378,0.0374,0.0364,0.0366,0.0351,0.0346,0.0336,0.0322,0.0305,0.0287,0.0273,0.0265,0.0264,0.0242,0.0259,0.0273,0.0242,0.0241,0.024,0.021,0.0206,0.0259,0.0259,0.0259,0,0.0375,0.0388,0.0382,0.0387,0.039,0.0373,0.0381,0.037,0.0353,0.0349,0.0339,0.0306,0.029,0.028,0.0277,0.0267,0.0246,0.0272,0.0244,0.0243,0.0241,0.0211,0.0206,0.026,0.026,0.026,0.026,0,0.0394,0.0404,0.0411,0.0415,0.0414,0.0418,0.0407,0.0402,0.0392,0.0375,0.0359,0.033,0.0311,0.0299,0.0289,0.0271,0.0259,0.025,0.0244,0.0241,0.0209,0.0204,0.0262,0.0261,0.0261,0.0261,0,0,0.0413,0.0424,0.0427,0.0437,0.0431,0.0434,0.0436,0.043,0.0434,0.0403,0.04,0.0367,0.0344,0.0334,0.0312,0.0284,0.025,0.0265,0.0263,0.024,0.0182,0.0173,0.0166,0.0236,0.0235,0.0235,0.0163,0,0.043,0.0451,0.045,0.0471,0.0482,0.0472,0.0478,0.0469,0.0452,0.0441,0.0405,0.039,0.036,0.0351,0.0317,0.0272,0.0238,0.0271,0.0184,0.0181,0.0178,0.016,0.0232,0.0159,0.0158,0.0157,0.0156,0,0.045,0.0463,0.0489,0.0507,0.0512,0.0523,0.0532,0.0532,0.051,0.0496,0.0465,0.0432,0.0393,0.0367,0.0279,0.0301,0.0244,0.0202,0.0198,0.018,0.0163,0.0162,0.0146,0.0147,0.0147,0.0148,0.0149,0,0.0471,0.0492,0.0519,0.0524,0.0538,0.0555,0.0562,0.0551,0.0559,0.0531,0.0526,0.0465,0.0443,0.0364,0.0273,0.0275,0.0172,0.0162,0.0097,0.0096,0.0116,0.0118,0.0094,0.0094,0.0094,0.0094,0.0094,0,0.0489,0.0513,0.0536,0.0552,0.059,0.0587,0.0619,0.0614,0.061,0.0616,0.0559,0.0546,0.0441,0.0368,0.0281,0.0173,0.0173,0.0097,0.0076,0.0126,0.0131,0.0112,0.0115,0.0092,0.0092,0.0093,0.0093,0,0.0508,0.0522,0.0559,0.0588,0.0604,0.0632,0.0668,0.0683,0.0674,0.0681,0.0676,0.0606,0.051,0.0396,0.0265,0.0189,0.0084,0.0044,0.0106,0.0091,0.0025,0.003,-0.0035,-0.0036,-0.0037,-0.0037,-0.0038,0,0.0518,0.054,0.0593,0.062,0.064,0.0682,0.0711,0.0719,0.0736,0.0716,0.0721,0.0636,0.0573,0.0383,0.0261,0.0086,0.0061,0.0001,0.0011,0.0025,0.0011,0.0018,0.0024,-0.0039,-0.0039,-0.004,-0.004,0,0.0537,0.0563,0.0595,0.0654,0.0697,0.0743,0.0784,0.08,0.0804,0.0796,0.0749,0.0644,0.0534,0.0384,0.0245,0.0122,0.0038,-0.0008,-0.0007,0.0002,0.0019,0.0008,0.0014,-0.0043,-0.0042,-0.0042,-0.0042,0,0.0557,0.0584,0.0632,0.0682,0.0739,0.0787,0.0806,0.082,0.0833,0.0805,0.0788,0.0663,0.0591,0.0402,0.0277,0.0151,0.0119,0.0075,0.0071,0.0072,0.0124,0.0163,0.0125,0,0,0,0,0,0.0569,0.0602,0.0652,0.0709,0.0765,0.0805,0.0848,0.0858,0.0861,0.0831,0.081,0.0703,0.0508,0.0428,0.03,0.0263,0.01,0.0109,0.0048,-0.0058,-0.0055,-0.0013,0,0,0,0,0,0,0.0578,0.0629,0.0653,0.0724,0.0769,0.0835,0.0868,0.0869,0.0852,0.0831,0.0731,0.0671,0.0488,0.0586,0.03,0.0262,0.0204,0.0019,0.0016,-0.006,-0.0057,-0.0054,-0.001,0,0,0,0,0]}]]